EDT,Max TemperatureF,Mean TemperatureF,Min TemperatureF,Max Dew PointF,MeanDew PointF,Min DewpointF,Max Humidity, Mean Humidity, Min Humidity, Max Sea Level PressureIn, Mean Sea Level PressureIn, Min Sea Level PressureIn, Max VisibilityMiles, Mean VisibilityMiles, Min VisibilityMiles, Max Wind SpeedMPH, Mean Wind SpeedMPH, Max Gust SpeedMPH,PrecipitationIn, CloudCover, Events, WindDirDegrees
2013-7-1,78,74,71,72,71,69,96,89,74,30.09,30.01,29.93,10,7,1,8,4,,1.05,7,Rain-Thunderstorm,153
2013-7-2,82,70,60,72,67,60,100,89,76,30.25,30.15,30.08,10,6,0,15,7,,0.00,8,Fog-Rain,124
2013-7-3,88,74,61,72,66,60,97,79,57,30.22,30.18,30.14,10,6,0,12,3,,0.00,5,Fog,202
2013-7-4,93,83,73,72,71,68,93,67,45,30.21,30.15,30.09,10,10,10,12,5,18,0.00,1,,210
2013-7-5,93,86,78,72,71,68,79,63,45,30.16,30.10,30.03,10,10,10,12,5,18,0.03,2,,229
2013-7-6,90,83,77,72,68,64,84,61,45,30.08,30.04,29.99,10,10,10,13,6,18,0.00,1,,259
2013-7-7,91,82,72,72,66,60,77,61,43,30.03,29.99,29.91,10,10,10,8,3,,0.00,1,,225
2013-7-8,84,74,66,73,69,63,100,84,67,30.10,29.99,29.93,10,8,1,14,5,18,0.77,6,Rain-Thunderstorm,60
2013-7-9,73,70,66,66,64,61,90,84,78,30.13,30.10,30.06,10,10,7,7,3,,0.00,8,,72
2013-7-10,82,74,66,75,69,63,97,90,74,30.08,29.92,29.78,10,5,0,9,4,,0.44,7,Fog-Rain-Thunderstorm,138
2013-7-11,82,76,71,73,71,65,100,86,67,29.96,29.84,29.75,10,6,1,13,4,24,0.33,4,Rain,179
2013-7-12,80,72,66,64,58,55,81,61,44,30.24,30.13,29.98,10,10,10,12,7,16,0.00,2,,49
2013-7-13,80,72,64,69,62,58,90,71,58,30.34,30.30,30.24,10,10,10,9,3,,0.00,6,,116
2013-7-14,90,79,69,72,69,66,100,74,46,30.32,30.27,30.22,10,9,6,10,2,,0.00,3,,299
2013-7-15,93,83,73,71,67,65,87,61,39,30.22,30.17,30.11,10,10,10,12,4,,0.00,1,,325
2013-7-16,95,83,73,71,66,61,73,57,33,30.18,30.15,30.13,10,10,10,13,5,16,0.00,2,,327
2013-7-17,95,84,73,73,69,67,87,63,41,30.19,30.11,30.00,10,10,10,10,3,,0.00,1,,259
2013-7-18,91,83,75,75,72,68,94,76,49,30.03,29.99,29.95,10,10,10,14,4,20,0.00,3,Rain-Thunderstorm,20
2013-7-19,97,85,73,73,72,68,94,66,40,29.95,29.82,29.70,10,10,10,15,5,23,0.00,1,,224
2013-7-20,91,84,75,70,66,63,69,57,44,29.82,29.73,29.67,10,10,10,12,6,28,0.00,2,,237
2013-7-21,82,74,66,67,64,60,93,72,54,30.01,29.94,29.84,10,10,10,10,3,,0.03,2,Rain,96
2013-7-22,81,73,66,68,66,63,100,84,62,30.06,29.99,29.93,10,7,1,10,3,,0.00,6,,60
2013-7-23,78,72,66,70,67,64,100,92,68,29.90,29.68,29.56,10,6,1,10,4,,1.04,7,Rain,16
2013-7-24,84,74,62,70,64,46,100,75,45,30.01,29.70,29.58,10,6,0,20,3,23,0.00,5,Fog,301
2013-7-25,68,62,57,58,51,45,86,67,57,30.14,30.10,30.02,10,10,10,13,8,,0.00,7,Rain,47
2013-7-26,75,68,62,66,61,58,94,84,66,30.10,30.01,29.95,10,9,6,14,8,20,0.48,7,Rain,332
2013-7-27,84,72,62,64,59,55,86,63,38,30.07,30.03,30.00,10,10,10,10,4,,0.00,0,,201
2013-7-28,81,73,66,68,65,62,93,79,64,30.05,30.01,29.96,10,10,5,14,4,,0.18,6,Rain,76
2013-7-29,84,75,66,69,66,64,96,84,53,30.06,30.02,29.97,10,6,0,12,3,17,0.03,6,Fog-Rain,143
2013-7-30,81,72,64,66,56,51,90,57,36,30.12,30.08,30.05,10,10,10,10,4,18,0.00,2,,319
2013-7-31,82,72,62,61,57,53,84,60,37,30.16,30.10,30.06,10,10,10,8,3,,0.00,1,,291